GEOEYE 1

Last updated on Tue Sep 22 2026 00:02:58 GMT+0000 (Coordinated Universal Time)

1 33331U 08042A 26264.47670774 .00000200 00000+0 46495-4 0 9992 2 33331 98.1257 337.2440 0005803 110.3253 249.8574 14.64693392964242
UTC large
Height (km)
Speed (km/s)
/
Latitude / Longitude
Inclination (degrees)
Orbital Period (minutes)
Azimuth
Elevation
Range (km)
Doppler Factor

Next 0 passes for location: London (51.5072 / 0.1276)

No passes found over London.
GEOEYE 1